Torna al catalogo

STARLINK-32631

AttivoComunicazioniVLEO
NORAD 62235·PAYLOAD·🇺🇸 United States

Lanciato Dec 5, 2024 da Vandenberg Space Force Base

Loading…

Prossimi Passaggi (prossime 24 ore)

TLE

AggiornatoSource: CelesTrak SupGP

Epoca: Sep 15, 2026, 02:56 UTC

1 62235C 24231T   26258.12270833 -.00029947  00000+0 -96491-3 0  2581
2 62235  53.1584  45.2446 0000960  90.8588 336.4006 15.31654584    19

Traccia STARLINK-32631 in tempo reale con AllMySat

Download on the App Store